[[{"header":{"parameterUnit":"m.s-1","parameterCategory":1,"la1":30.2991,"la2":30.254,"lo1":-89.0895,"lo2":-89.0444,"dy":0.0017,"dx":0.0017,"nx":28,"ny":28,"refTime":"2024-08-10T21:00:00:Z","depth":0,"parameterNumber":2,"parameterNumberName":"U-component_of_WINDS"},"data":[0,0,0,0,0,0,0,0,0,0,0,0,0,0,0,0,0,0,0,0,0,0,0,0,0,0,0,0,0,0,0,0,0,0,0,0,0,0,0,0,0,0,0,0,0,0,0,0,0,0,0,0,0,0,0,0,0,0,1.6173,1.6172,0,1.6137,1.6136,1.6136,1.601,1.6007,1.6004,1.6002,1.5969,1.5971,1.5973,0,0,0,0,0,0,0,0,0,0,0,0,0,1.6135,1.6137,1.6173,1.6172,1.6172,1.6137,1.6136,1.6136,1.6011,1.6007,1.6004,1.6,1.5968,1.5971,1.5973,0,0,0,0,0,0,0,0,0,0,0,0,0,1.6131,1.6137,1.6173,1.6105,1.6098,1.6137,1.6136,1.6136,1.6011,1.6007,1.6003,1.5999,1.5968,1.597,1.5973,1.6075,0,0,1.5981,1.5982,0,0,0,0,0,0,0,0,1.6131,1.6132,1.6115,1.611,1.6102,1.6073,1.6111,1.6116,1.6012,1.6045,1.6002,1.5997,1.6008,1.6007,1.6009,1.6074,1.6073,1.5981,1.5983,1.5984,1.5985,0,0,0,0,0,0,0,1.6132,1.6133,1.6158,1.6115,1.6107,1.6077,1.6072,1.6111,1.6051,1.6041,1.6032,1.6029,1.6003,1.6007,1.6008,1.6072,1.5981,1.5984,1.5985,1.5986,1.6219,1.6223,0,0,0,0,0,0,1.6141,1.6134,1.616,1.6157,1.6106,1.6081,1.6075,1.6087,1.605,1.604,1.6033,1.6024,1.6005,1.6005,1.6006,1.6123,1.5984,1.5987,1.5988,1.6214,1.622,1.6225,0,0,0,0,0,0,1.6141,1.6145,1.6161,1.6143,1.6143,1.6087,1.6101,1.6089,1.6092,1.6043,1.6032,1.6048,1.6001,1.6002,1.6059,1.6121,1.5988,1.599,1.6209,1.6216,1.6222,1.6359,0,0,0,0,0,0,1.614,1.6145,1.6183,1.6145,1.6145,1.6214,1.6105,1.6091,1.6097,1.6084,1.6055,1.6046,1.5998,1.6056,1.6062,1.6122,1.5993,1.6203,1.6212,1.622,1.6349,1.637,1.6388,0,0,0,0,0,1.614,1.6224,1.6186,1.6189,1.619,1.6218,1.6217,1.616,1.6103,1.614,1.6109,1.6047,1.6113,1.6062,1.6068,1.613,1.6199,1.6209,1.6219,1.634,1.6366,1.6388,0,0,0,0,0,0,1.6272,1.6218,1.6175,1.6249,1.6239,1.6196,1.6242,1.6189,1.6195,1.6183,1.6113,1.6107,1.6174,1.6157,1.6102,1.6227,1.6146,1.6158,1.6236,1.6259,1.6279,1.6281,1.5995,0,0,0,0,0,1.631,1.6335,1.6287,1.6357,1.6354,1.63,1.6309,1.6266,1.6253,1.6248,1.622,1.6212,1.623,1.6244,1.6258,1.6346,1.6338,1.6392,1.6411,1.6427,1.6439,1.6484,1.6507,1.6258,1.6258,1.6258,0,0,1.6388,1.6361,1.6382,1.6383,1.637,1.6399,1.6297,1.6332,1.6353,1.6254,1.6305,1.6285,1.627,1.6343,1.6373,1.6331,1.6506,1.644,1.6454,1.6456,1.6497,1.6521,1.6542,1.6265,1.6264,1.6263,0,0,1.6545,1.6528,1.6584,1.6573,1.6554,1.6517,1.6531,1.6496,1.6479,1.6529,1.6455,1.648,1.6513,1.6506,1.6506,1.6661,1.6604,1.6668,1.677,1.6815,1.6835,1.6852,1.6907,1.6928,1.6679,1.668,1.668,0,1.6646,1.6685,1.6621,1.666,1.6663,1.6573,1.663,1.6623,1.6611,1.6615,1.6568,1.6608,1.6591,1.6661,1.6699,1.6702,1.6717,1.6671,1.6837,1.6853,1.6868,1.692,1.6941,1.6687,1.6687,1.6686,1.6685,0,1.6809,1.6838,1.6886,1.6875,1.6883,1.6932,1.6875,1.6892,1.6848,1.6816,1.6869,1.6846,1.6854,1.6867,1.6825,1.6932,1.6906,1.6849,1.6765,1.6901,1.6949,1.6968,1.6699,1.6696,1.6694,1.6692,0,0,1.705,1.7001,1.702,1.7014,1.6986,1.7008,1.7053,1.7059,1.7075,1.7069,1.7106,1.7136,1.7083,1.7084,1.704,1.708,1.7204,1.7017,1.7016,1.7053,1.732,1.7363,1.7388,1.7166,1.717,1.7172,1.7321,0,1.7199,1.7271,1.7215,1.7298,1.7324,1.7239,1.7278,1.7266,1.7238,1.7257,1.7226,1.7249,1.7176,1.7176,1.7212,1.7181,1.7257,1.717,1.72,1.7202,1.7207,1.7412,1.7458,1.76,1.734,1.7343,1.7345,0,1.7383,1.7385,1.747,1.7437,1.7445,1.7482,1.7483,1.7502,1.7487,1.7464,1.7465,1.741,1.7453,1.7371,1.7429,1.7372,1.7381,1.7368,1.7372,1.7372,1.7282,1.7419,1.7644,1.7665,1.7374,1.7372,1.7369,0,1.755,1.7574,1.7627,1.7625,1.7587,1.7614,1.76,1.7581,1.7588,1.759,1.7595,1.7603,1.7607,1.7615,1.7564,1.7509,1.7629,1.7543,1.7612,1.7614,1.7641,1.764,1.7871,1.7648,1.7647,1.7647,1.7646,0,1.7723,1.7779,1.7702,1.7735,1.7795,1.773,1.7791,1.7768,1.7752,1.778,1.7708,1.7736,1.7667,1.7689,1.765,1.7705,1.7707,1.769,1.7679,1.7697,1.7699,1.7702,1.7691,1.7652,1.7651,1.765,1.7649,0,1.792,1.787,1.7923,1.7883,1.7874,1.792,1.7886,1.7916,1.7883,1.7919,1.7924,1.7873,1.7895,1.7845,1.786,1.7833,1.7911,1.7885,1.7916,1.7908,1.798,1.7974,1.8221,1.825,1.8008,1.8011,1.8012,0,1.8034,1.8074,1.8038,1.8051,1.804,1.8062,1.8069,1.8007,1.8017,1.8003,1.8035,1.805,1.8059,1.8098,1.8063,1.8074,1.8047,1.8133,1.8049,1.8065,1.8049,1.8047,1.8051,1.8151,1.8154,1.8156,1.8158,0,1.8241,1.8214,1.8226,1.823,1.824,1.8241,1.8236,1.8252,1.8185,1.8201,1.8221,1.8228,1.8243,1.8259,1.8262,1.8249,1.8193,1.8185,1.8201,1.822,1.8236,1.8228,1.7964,1.8179,1.8177,1.8176,1.8174,1.8174,1.8399,1.8431,1.841,1.8427,1.8416,1.8414,1.844,1.8409,1.8425,1.8431,1.8393,1.8422,1.8406,1.8405,1.8397,1.842,1.8381,1.8405,1.8411,1.8418,1.843,1.8233,1.842,1.8419,1.8419,1.8418,1.8418,0,1.8603,1.8585,1.86,1.8596,1.8609,1.8553,1.8546,1.8561,1.8586,1.8576,1.8586,1.861,1.8625,1.8591,1.8602,1.8627,1.8601,1.8632,1.8629,1.8627,1.8464,1.8448,1.8652,1.8652,1.8652,1.8652,1.8652,1.8652,1.871,1.8761,1.8732,1.8778,1.876,1.8786,1.8787,1.8785,1.8776,1.8805,1.8817,1.8794,1.8775,1.8783,1.8796,1.8785,1.8793,1.8832,1.8814,1.8662,1.8639,1.8617,1.8602,1.8834,1.8835,1.8975,1.8976,1.8977]},{"header":{"parameterUnit":"m.s-1","parameterCategory":1,"la1":30.2991,"la2":30.254,"lo1":-89.0895,"lo2":-89.0444,"dy":0.0017,"dx":0.0017,"nx":28,"ny":28,"refTime":"2024-08-10T21:00:00:Z","depth":0,"parameterNumber":3,"parameterNumberName":"V-component_of_WINDS"},"data":[0,0,0,0,0,0,0,0,0,0,0,0,0,0,0,0,0,0,0,0,0,0,0,0,0,0,0,0,0,0,0,0,0,0,0,0,0,0,0,0,0,0,0,0,0,0,0,0,0,0,0,0,0,0,0,0,0,0,-0.771,-0.7711,0,-0.7749,-0.7749,-0.775,-0.7773,-0.7774,-0.7774,-0.7774,-0.7813,-0.7814,-0.7815,0,0,0,0,0,0,0,0,0,0,0,0,0,-0.7659,-0.7659,-0.771,-0.7711,-0.7711,-0.7749,-0.7749,-0.775,-0.7773,-0.7774,-0.7774,-0.7774,-0.7813,-0.7814,-0.7815,0,0,0,0,0,0,0,0,0,0,0,0,0,-0.7687,-0.766,-0.771,-0.7728,-0.773,-0.7749,-0.7749,-0.775,-0.7773,-0.7774,-0.7774,-0.7774,-0.7813,-0.7814,-0.7816,-0.782,0,0,-0.782,-0.782,0,0,0,0,0,0,0,0,-0.7686,-0.7689,-0.7725,-0.7726,-0.7729,-0.7756,-0.7746,-0.7774,-0.7773,-0.7757,-0.7774,-0.7774,-0.7794,-0.7797,-0.7804,-0.7822,-0.7824,-0.782,-0.7821,-0.7821,-0.7822,0,0,0,0,0,0,0,-0.7684,-0.7688,-0.7726,-0.7725,-0.7728,-0.7734,-0.7738,-0.7751,-0.7774,-0.7758,-0.776,-0.7764,-0.7796,-0.7803,-0.7805,-0.7825,-0.782,-0.7821,-0.7822,-0.7823,-0.785,-0.785,0,0,0,0,0,0,-0.7679,-0.7686,-0.7724,-0.7727,-0.7707,-0.7735,-0.7739,-0.7747,-0.7774,-0.7778,-0.7764,-0.7765,-0.78,-0.7804,-0.7807,-0.7815,-0.7821,-0.7823,-0.7824,-0.785,-0.785,-0.785,0,0,0,0,0,0,-0.7678,-0.7682,-0.7723,-0.7707,-0.7712,-0.7735,-0.7744,-0.7748,-0.7755,-0.7778,-0.7783,-0.7767,-0.78,-0.7805,-0.7817,-0.7816,-0.7823,-0.7825,-0.785,-0.785,-0.785,-0.783,0,0,0,0,0,0,-0.7676,-0.7681,-0.7683,-0.7707,-0.7713,-0.7732,-0.7744,-0.7749,-0.7757,-0.7759,-0.7782,-0.7786,-0.7801,-0.7815,-0.7818,-0.7818,-0.7826,-0.785,-0.785,-0.785,-0.7831,-0.7829,-0.7828,0,0,0,0,0,-0.7674,-0.7676,-0.7683,-0.7688,-0.7716,-0.7732,-0.7736,-0.7752,-0.7757,-0.7759,-0.7775,-0.7786,-0.7816,-0.7816,-0.782,-0.782,-0.785,-0.785,-0.785,-0.7831,-0.7829,-0.7828,0,0,0,0,0,0,-0.7652,-0.7679,-0.7688,-0.7697,-0.7712,-0.7736,-0.7739,-0.775,-0.7763,-0.7765,-0.7785,-0.779,-0.78,-0.7812,-0.7811,-0.7827,-0.7834,-0.7835,-0.7819,-0.7817,-0.7816,-0.7813,-0.7827,0,0,0,0,0,-0.7648,-0.7658,-0.7682,-0.7688,-0.7695,-0.7716,-0.7723,-0.7735,-0.7751,-0.7758,-0.7774,-0.7789,-0.7803,-0.7811,-0.7824,-0.7833,-0.7839,-0.7835,-0.7834,-0.7832,-0.7833,-0.7839,-0.7838,-0.7849,-0.7849,-0.7849,0,0,-0.764,-0.7656,-0.7662,-0.7684,-0.7697,-0.7708,-0.7721,-0.7731,-0.774,-0.7759,-0.7772,-0.7784,-0.7803,-0.7814,-0.782,-0.7824,-0.7831,-0.7832,-0.7831,-0.7832,-0.7838,-0.7837,-0.7836,-0.7848,-0.7848,-0.7848,0,0,-0.7631,-0.7644,-0.7651,-0.7664,-0.7683,-0.7697,-0.7699,-0.7722,-0.7731,-0.7744,-0.7759,-0.7769,-0.7791,-0.7804,-0.7814,-0.7811,-0.7822,-0.7815,-0.7807,-0.7813,-0.7812,-0.7811,-0.7811,-0.781,-0.7815,-0.7815,-0.7815,0,-0.7618,-0.7635,-0.7653,-0.7663,-0.7673,-0.7692,-0.7699,-0.7711,-0.7733,-0.774,-0.7745,-0.7773,-0.7787,-0.7802,-0.7801,-0.7808,-0.7811,-0.7812,-0.7811,-0.781,-0.781,-0.7809,-0.7809,-0.7814,-0.7814,-0.7814,-0.7814,0,-0.7619,-0.763,-0.7634,-0.7655,-0.7666,-0.7674,-0.7694,-0.7702,-0.7714,-0.7727,-0.7741,-0.7758,-0.7776,-0.778,-0.7791,-0.7797,-0.7799,-0.7807,-0.7814,-0.7807,-0.7807,-0.7807,-0.7813,-0.7813,-0.7813,-0.7814,0,0,-0.7596,-0.7628,-0.7629,-0.764,-0.7663,-0.7673,-0.7683,-0.77,-0.7707,-0.7722,-0.7731,-0.775,-0.7758,-0.7769,-0.7781,-0.7787,-0.7784,-0.7794,-0.7795,-0.7792,-0.7791,-0.7785,-0.7785,-0.7791,-0.7792,-0.7792,-0.779,0,-0.759,-0.7609,-0.7626,-0.7638,-0.7649,-0.7668,-0.7677,-0.7692,-0.7705,-0.7717,-0.7732,-0.7745,-0.7754,-0.7761,-0.7767,-0.7783,-0.7784,-0.7783,-0.78,-0.7801,-0.7795,-0.7785,-0.7778,-0.7775,-0.779,-0.779,-0.779,0,-0.7586,-0.7601,-0.7614,-0.7638,-0.7643,-0.765,-0.7668,-0.7679,-0.7697,-0.7707,-0.7719,-0.7733,-0.7745,-0.7752,-0.7769,-0.7768,-0.7776,-0.7785,-0.7786,-0.7788,-0.7795,-0.7786,-0.7775,-0.7774,-0.779,-0.779,-0.779,0,-0.7568,-0.7591,-0.7603,-0.7611,-0.7638,-0.7643,-0.7655,-0.7674,-0.7683,-0.7699,-0.7706,-0.7723,-0.7732,-0.7745,-0.7763,-0.7766,-0.7778,-0.7787,-0.7787,-0.7786,-0.7788,-0.7788,-0.7778,-0.7794,-0.7794,-0.7794,-0.7794,0,-0.756,-0.7567,-0.7595,-0.7602,-0.7611,-0.7631,-0.764,-0.7653,-0.767,-0.768,-0.7698,-0.7707,-0.7731,-0.7743,-0.7757,-0.777,-0.7774,-0.7782,-0.7786,-0.778,-0.7779,-0.7786,-0.7786,-0.7794,-0.7794,-0.7794,-0.7794,0,-0.7541,-0.7559,-0.7573,-0.7598,-0.7605,-0.761,-0.7632,-0.764,-0.7655,-0.7667,-0.7672,-0.7695,-0.771,-0.773,-0.7752,-0.7761,-0.7772,-0.7778,-0.7766,-0.7768,-0.7767,-0.7767,-0.7761,-0.7761,-0.7777,-0.7776,-0.7776,0,-0.7534,-0.754,-0.7566,-0.7574,-0.7585,-0.7598,-0.7608,-0.7629,-0.7639,-0.7661,-0.7666,-0.7683,-0.7698,-0.7722,-0.7741,-0.7758,-0.7764,-0.7761,-0.7767,-0.7761,-0.7764,-0.7763,-0.7764,-0.7759,-0.7759,-0.7758,-0.7758,0,-0.752,-0.7529,-0.7543,-0.756,-0.7572,-0.7586,-0.7602,-0.7608,-0.7632,-0.7642,-0.7658,-0.7669,-0.7692,-0.7709,-0.7728,-0.7741,-0.7754,-0.7756,-0.7757,-0.7752,-0.7744,-0.7749,-0.7761,-0.7756,-0.7756,-0.7757,-0.7757,-0.7757,-0.7507,-0.7514,-0.7533,-0.7548,-0.7562,-0.7576,-0.7585,-0.7601,-0.7615,-0.7635,-0.7646,-0.7662,-0.7682,-0.771,-0.7722,-0.7735,-0.774,-0.7741,-0.7741,-0.7741,-0.774,-0.7743,-0.7739,-0.7739,-0.7739,-0.7739,-0.7739,0,-0.7494,-0.7508,-0.7521,-0.7543,-0.7555,-0.7566,-0.7584,-0.7593,-0.7607,-0.7624,-0.7638,-0.7657,-0.7674,-0.7695,-0.7713,-0.772,-0.7726,-0.7724,-0.7723,-0.7726,-0.7734,-0.7732,-0.7718,-0.7718,-0.7718,-0.7718,-0.7718,-0.7718,-0.7489,-0.7501,-0.7513,-0.7532,-0.7546,-0.7562,-0.7571,-0.7585,-0.7599,-0.7619,-0.7633,-0.7646,-0.7665,-0.7685,-0.7701,-0.7707,-0.7713,-0.7709,-0.7716,-0.7724,-0.7725,-0.7727,-0.7725,-0.771,-0.771,-0.7707,-0.7707,-0.7707]}]]